GFSCGP_500_temp_273.txt.gz
Temp
-15 -15 -16 -17 -17 -16 -16 -16 -16 -17 -17 -19 -22 -24 -27 -27 -27 -27 -27 -27 -27 -28 -27 -27 -27 -28 -27 -26 -24 -23 -21 -20 -19 -19 -19 -19 -18 -17 -17 -18 -17 -17 -16 -16
-15 -16 -16 -17 -17 -16 -16 -17 -17 -17 -18 -19 -22 -24 -27 -27 -27 -27 -27 -28 -28 -28 -28 -28 -28 -28 -27 -26 -25 -23 -22 -20 -20 -19 -19 -19 -19 -19 -19 -18 -18 -17 -17 -16
-16 -16 -17 -17 -17 -16 -16 -17 -17 -17 -18 -20 -21 -23 -26 -27 -27 -27 -27 -27 -28 -28 -28 -28 -28 -27 -27 -26 -25 -24 -22 -21 -20 -20 -20 -19 -19 -19 -19 -19 -18 -18 -18 -17
-16 -16 -17 -17 -17 -16 -16 -17 -17 -18 -18 -20 -21 -22 -25 -26 -26 -26 -27 -27 -27 -28 -28 -28 -28 -28 -27 -26 -25 -24 -23 -21 -20 -20 -19 -19 -19 -19 -19 -19 -18 -18 -17 -17
-16 -17 -18 -17 -17 -16 -16 -17 -17 -17 -18 -19 -20 -22 -24 -26 -26 -26 -27 -27 -27 -27 -27 -27 -27 -27 -27 -26 -24 -23 -22 -21 -21 -20 -20 -19 -19 -19 -19 -19 -19 -18 -18 -17
-16 -17 -17 -17 -17 -16 -16 -16 -17 -17 -18 -19 -20 -23 -24 -25 -26 -26 -26 -27 -27 -27 -27 -27 -27 -26 -26 -25 -24 -23 -22 -21 -21 -20 -20 -19 -19 -19 -19 -19 -19 -19 -18 -17
-17 -17 -17 -17 -17 -16 -16 -17 -17 -17 -18 -19 -20 -21 -23 -23 -25 -25 -26 -26 -27 -26 -27 -26 -26 -26 -25 -25 -24 -23 -22 -21 -20 -20 -19 -19 -19 -19 -19 -19 -19 -19 -18 -18
-16 -17 -18 -18 -18 -17 -16 -17 -17 -18 -18 -18 -19 -21 -22 -24 -24 -25 -25 -26 -26 -26 -26 -26 -25 -25 -25 -24 -24 -23 -22 -21 -20 -20 -19 -19 -19 -19 -19 -19 -19 -19 -18 -18
-16 -17 -18 -18 -18 -17 -16 -17 -17 -17 -18 -18 -19 -19 -21 -23 -23 -24 -25 -25 -26 -26 -26 -26 -25 -25 -25 -24 -23 -23 -22 -21 -20 -20 -19 -19 -19 -19 -20 -20 -19 -19 -19 -18
-16 -17 -18 -18 -19 -18 -17 -17 -17 -18 -18 -18 -19 -19 -20 -21 -23 -23 -24 -24 -25 -25 -25 -26 -25 -25 -25 -24 -23 -23 -22 -21 -21 -20 -20 -20 -20 -20 -20 -20 -20 -19 -19 -18
-17 -17 -18 -18 -19 -18 -17 -17 -17 -18 -18 -18 -18 -19 -19 -19 -20 -22 -23 -24 -24 -25 -25 -25 -24 -24 -24 -24 -23 -23 -22 -22 -21 -21 -21 -20 -20 -20 -20 -20 -19 -18 -17 -17
-17 -17 -18 -19 -19 -18 -17 -18 -18 -17 -18 -18 -18 -18 -19 -19 -19 -20 -23 -23 -24 -24 -24 -24 -24 -24 -24 -23 -23 -22 -22 -21 -21 -21 -20 -20 -20 -20 -20 -20 -18 -18 -17 -16
-16 -17 -17 -18 -18 -18 -17 -17 -18 -17 -18 -18 -18 -18 -19 -19 -18 -19 -20 -23 -23 -24 -23 -23 -23 -23 -23 -23 -22 -22 -21 -20 -20 -20 -20 -21 -21 -21 -20 -21 -19 -19 -19 -18
-17 -17 -17 -17 -17 -17 -17 -17 -18 -18 -18 -18 -19 -19 -18 -19 -18 -19 -19 -22 -23 -23 -23 -23 -22 -22 -22 -22 -22 -21 -21 -21 -20 -20 -20 -21 -21 -21 -21 -20 -19 -19 -18 -18
-16 -17 -17 -17 -17 -17 -17 -18 -18 -18 -18 -18 -18 -18 -19 -18 -18 -18 -19 -20 -23 -23 -22 -22 -21 -22 -22 -22 -21 -21 -21 -20 -20 -20 -20 -21 -21 -20 -20 -19 -19 -19 -18 -18
-16 -17 -17 -17 -17 -17 -18 -18 -19 -19 -18 -18 -19 -19 -19 -18 -19 -18 -18 -19 -20 -22 -20 -20 -21 -21 -20 -20 -20 -20 -20 -20 -20 -21 -20 -21 -20 -20 -20 -19 -19 -19 -19 -18
-16 -17 -16 -16 -17 -17 -18 -18 -19 -19 -18 -19 -19 -19 -19 -19 -19 -18 -19 -18 -19 -20 -19 -20 -20 -20 -20 -20 -20 -20 -20 -20 -20 -20 -20 -20 -19 -19 -19 -19 -19 -18 -18 -18
-16 -16 -16 -16 -17 -17 -17 -18 -19 -19 -19 -19 -20 -20 -19 -20 -19 -19 -19 -19 -19 -19 -19 -19 -19 -19 -19 -19 -20 -20 -20 -20 -20 -20 -20 -20 -19 -19 -19 -19 -19 -19 -18 -19
-16 -16 -16 -16 -16 -17 -17 -18 -19 -19 -19 -20 -19 -20 -19 -20 -19 -19 -19 -19 -19 -19 -19 -19 -19 -19 -19 -20 -19 -19 -19 -19 -20 -20 -20 -20 -20 -19 -19 -19 -19 -19 -18 -18
-16 -16 -16 -16 -16 -17 -17 -17 -19 -19 -19 -20 -19 -19 -19 -20 -20 -20 -20 -20 -20 -20 -20 -20 -20 -20 -20 -20 -20 -20 -20 -20 -20 -20 -21 -20 -21 -21 -21 -20 -19 -19 -19 -19
-16 -16 -16 -16 -16 -16 -17 -17 -18 -19 -19 -19 -19 -19 -19 -19 -19 -20 -20 -20 -20 -20 -20 -20 -20 -20 -20 -20 -20 -20 -20 -20 -20 -20 -20 -20 -20 -20 -20 -20 -20 -20 -19 -19
-16 -16 -16 -16 -16 -16 -16 -17 -17 -18 -18 -18 -19 -19 -19 -19 -19 -19 -19 -19 -19 -19 -19 -19 -20 -20 -20 -20 -20 -20 -20 -20 -20 -20 -20 -20 -20 -20 -20 -20 -20 -20 -19 -19
-16 -16 -16 -16 -16 -16 -16 -16 -16 -17 -17 -18 -18 -18 -18 -18 -19 -19 -19 -19 -19 -19 -19 -19 -19 -19 -19 -20 -20 -20 -20 -20 -20 -20 -20 -20 -20 -20 -19 -19 -19 -19 -19 -19
-16 -16 -16 -16 -16 -16 -16 -16 -16 -16 -17 -17 -17 -18 -18 -18 -18 -18 -19 -19 -19 -19 -19 -19 -19 -19 -20 -20 -20 -20 -20 -20 -20 -20 -20 -20 -19 -19 -19 -20 -19 -19 -19 -19
-16 -16 -16 -16 -16 -16 -16 -16 -16 -17 -17 -17 -17 -17 -18 -18 -18 -18 -18 -18 -19 -19 -19 -19 -19 -19 -20 -20 -20 -20 -20 -20 -19 -19 -19 -19 -19 -19 -19 -19 -19 -19 -19 -20
-16 -16 -16 -16 -16 -16 -16 -16 -16 -17 -17 -17 -17 -17 -18 -18 -18 -18 -18 -18 -19 -19 -19 -19 -19 -20 -20 -20 -20 -20 -19 -19 -19 -19 -19 -19 -19 -19 -19 -19 -19 -19 -19 -19

GFSCGP_500_temp_276.txt.gz
Temp
-14 -14 -15 -15 -15 -16 -16 -16 -15 -16 -16 -17 -17 -17 -18 -21 -23 -25 -25 -26 -26 -27 -27 -27 -27 -27 -26 -26 -26 -26 -25 -23 -22 -21 -20 -18 -18 -18 -18 -17 -16 -16 -17 -17
-14 -15 -15 -15 -16 -17 -16 -16 -16 -17 -17 -17 -17 -18 -19 -22 -23 -24 -25 -26 -26 -27 -27 -28 -28 -28 -28 -27 -27 -27 -26 -25 -22 -22 -21 -19 -18 -18 -18 -18 -18 -17 -17 -18
-15 -15 -15 -15 -16 -17 -17 -16 -16 -17 -17 -17 -17 -18 -19 -22 -22 -24 -25 -25 -26 -27 -27 -28 -28 -28 -28 -28 -28 -28 -27 -27 -24 -22 -22 -20 -19 -18 -18 -18 -18 -20 -18 -18
-15 -15 -15 -16 -16 -17 -17 -16 -17 -17 -17 -17 -17 -18 -19 -22 -22 -24 -25 -25 -26 -26 -27 -27 -28 -28 -28 -28 -28 -27 -27 -26 -25 -22 -22 -20 -19 -19 -19 -19 -19 -19 -18 -18
-15 -15 -16 -16 -17 -17 -17 -16 -17 -17 -16 -17 -17 -18 -19 -21 -23 -24 -24 -25 -26 -26 -27 -27 -27 -27 -27 -27 -27 -27 -26 -25 -25 -23 -22 -21 -19 -19 -19 -19 -19 -19 -19 -18
-15 -16 -16 -16 -17 -17 -18 -17 -17 -17 -17 -17 -17 -18 -19 -21 -23 -24 -24 -25 -26 -26 -26 -27 -27 -27 -27 -27 -27 -26 -25 -24 -24 -23 -22 -20 -19 -19 -19 -19 -19 -19 -19 -19
-15 -16 -16 -17 -17 -18 -18 -17 -17 -16 -17 -17 -17 -18 -19 -20 -22 -23 -24 -25 -25 -26 -26 -26 -26 -26 -26 -26 -26 -25 -25 -24 -23 -22 -21 -20 -19 -19 -19 -19 -19 -19 -19 -19
-15 -16 -16 -17 -17 -18 -18 -17 -18 -17 -17 -17 -18 -18 -19 -20 -21 -23 -24 -24 -25 -26 -26 -26 -26 -26 -26 -25 -25 -25 -24 -23 -22 -21 -20 -20 -19 -19 -19 -19 -19 -19 -19 -19
-15 -16 -16 -17 -18 -18 -18 -17 -17 -17 -17 -17 -17 -18 -19 -20 -21 -23 -23 -24 -24 -25 -25 -25 -26 -26 -26 -25 -25 -25 -24 -22 -21 -20 -20 -20 -19 -19 -19 -19 -19 -19 -19 -19
-15 -16 -16 -17 -18 -18 -18 -18 -17 -18 -18 -17 -18 -18 -20 -20 -21 -21 -23 -24 -24 -25 -25 -25 -25 -25 -25 -25 -25 -24 -24 -22 -21 -20 -20 -20 -19 -19 -19 -19 -19 -19 -19 -19
-16 -16 -16 -17 -18 -18 -18 -17 -18 -18 -18 -18 -18 -18 -19 -20 -21 -22 -23 -23 -23 -24 -24 -24 -25 -25 -25 -25 -24 -24 -23 -22 -21 -20 -20 -19 -19 -19 -19 -19 -19 -19 -19 -19
-16 -16 -16 -17 -18 -18 -18 -18 -18 -18 -19 -19 -19 -18 -19 -19 -20 -22 -23 -23 -23 -23 -24 -24 -24 -24 -25 -25 -24 -23 -23 -22 -21 -20 -20 -20 -20 -20 -20 -20 -20 -20 -20 -19
-16 -16 -16 -17 -17 -18 -17 -18 -18 -19 -19 -19 -19 -18 -19 -19 -19 -22 -23 -22 -22 -22 -23 -23 -23 -23 -23 -24 -24 -23 -23 -22 -22 -21 -21 -21 -21 -21 -20 -20 -20 -20 -19 -19
-16 -16 -16 -17 -17 -17 -17 -18 -19 -19 -19 -19 -19 -19 -19 -18 -19 -19 -19 -20 -20 -21 -22 -23 -23 -22 -22 -22 -22 -22 -21 -21 -21 -21 -21 -21 -21 -21 -21 -21 -20 -20 -20 -20
-16 -16 -16 -17 -17 -17 -17 -18 -19 -19 -19 -19 -19 -19 -19 -18 -19 -19 -19 -19 -20 -20 -21 -21 -21 -21 -21 -21 -21 -21 -21 -21 -21 -21 -21 -21 -21 -21 -21 -21 -20 -19 -19 -19
-16 -16 -16 -17 -17 -17 -18 -18 -19 -19 -19 -19 -19 -19 -19 -18 -19 -19 -19 -19 -19 -19 -20 -20 -20 -20 -20 -20 -20 -20 -20 -21 -21 -21 -21 -21 -21 -20 -20 -20 -19 -19 -19 -18
-16 -16 -16 -17 -17 -17 -17 -18 -19 -19 -19 -19 -19 -19 -19 -19 -19 -19 -19 -19 -19 -19 -19 -20 -19 -19 -20 -20 -20 -20 -20 -20 -20 -20 -20 -19 -20 -20 -20 -20 -19 -19 -19 -18
-16 -16 -16 -16 -16 -17 -17 -18 -19 -19 -19 -19 -19 -19 -19 -19 -19 -19 -19 -19 -19 -19 -19 -19 -20 -20 -20 -20 -20 -19 -20 -19 -20 -20 -20 -20 -20 -20 -19 -19 -18 -19 -19 -19
-16 -16 -16 -16 -16 -17 -17 -18 -19 -19 -19 -19 -19 -19 -19 -19 -19 -19 -19 -19 -19 -20 -20 -20 -20 -20 -20 -20 -20 -19 -19 -19 -20 -20 -20 -20 -20 -20 -19 -19 -19 -19 -19 -19
-16 -16 -16 -16 -16 -16 -17 -17 -18 -18 -19 -19 -19 -19 -19 -19 -19 -19 -19 -19 -19 -19 -19 -19 -19 -19 -20 -20 -20 -20 -20 -20 -20 -20 -20 -20 -21 -21 -21 -21 -21 -20 -20 -20
-16 -16 -16 -16 -16 -16 -16 -17 -17 -18 -18 -18 -18 -18 -18 -18 -18 -19 -19 -19 -19 -19 -19 -19 -20 -20 -20 -20 -20 -20 -20 -20 -20 -20 -20 -20 -20 -20 -20 -20 -20 -20 -20 -20
-16 -16 -16 -16 -16 -16 -16 -16 -17 -17 -18 -18 -18 -18 -18 -18 -18 -19 -19 -19 -19 -19 -19 -19 -19 -20 -20 -20 -20 -20 -20 -20 -20 -20 -20 -20 -20 -20 -20 -20 -20 -19 -19 -19
-16 -16 -16 -16 -16 -16 -16 -16 -16 -17 -17 -17 -18 -18 -18 -18 -19 -19 -19 -19 -19 -19 -19 -19 -20 -20 -20 -20 -20 -20 -20 -19 -19 -19 -19 -19 -19 -19 -19 -19 -19 -19 -19 -19
-16 -16 -16 -16 -16 -16 -16 -16 -16 -17 -17 -17 -17 -18 -18 -18 -18 -19 -19 -19 -19 -19 -19 -19 -20 -20 -20 -20 -20 -20 -19 -19 -19 -19 -19 -19 -19 -19 -19 -19 -19 -19 -19 -19
-17 -17 -17 -17 -16 -17 -17 -17 -17 -17 -17 -17 -17 -17 -18 -18 -18 -18 -18 -19 -19 -19 -19 -19 -19 -20 -20 -20 -20 -20 -19 -19 -19 -19 -19 -19 -19 -19 -19 -19 -19 -19 -19 -19
-17 -17 -16 -17 -16 -17 -16 -17 -17 -17 -17 -17 -17 -17 -17 -18 -18 -18 -18 -18 -19 -19 -19 -19 -19 -19 -19 -19 -19 -20 -19 -19 -19 -19 -19 -19 -19 -19 -19 -19 -19 -19 -19 -19

GFSCGP_500_temp_279.txt.gz
Temp
-14 -14 -14 -14 -15 -15 -15 -15 -16 -16 -17 -17 -17 -16 -16 -16 -16 -18 -19 -21 -23 -24 -25 -25 -26 -26 -27 -27 -26 -26 -26 -26 -25 -24 -22 -21 -20 -20 -18 -18 -17 -17 -16 -15
-14 -14 -14 -15 -15 -15 -15 -16 -16 -17 -17 -17 -17 -16 -16 -17 -17 -18 -20 -22 -24 -25 -25 -26 -26 -27 -27 -28 -28 -27 -26 -26 -26 -25 -24 -22 -21 -20 -19 -18 -18 -18 -17 -16
-15 -15 -15 -15 -15 -15 -16 -16 -17 -17 -18 -17 -17 -16 -16 -17 -18 -19 -20 -23 -24 -25 -25 -26 -26 -26 -27 -28 -28 -27 -27 -27 -26 -26 -25 -23 -22 -21 -21 -19 -19 -19 -18 -17
-15 -15 -15 -15 -15 -15 -16 -16 -17 -18 -18 -17 -17 -16 -17 -17 -19 -20 -20 -23 -24 -25 -25 -26 -26 -27 -27 -27 -28 -28 -28 -28 -28 -27 -26 -25 -23 -22 -21 -19 -18 -18 -19 -18
-15 -15 -15 -15 -15 -15 -16 -17 -17 -18 -18 -17 -17 -17 -17 -18 -19 -20 -21 -23 -24 -25 -25 -26 -26 -26 -27 -27 -27 -27 -28 -27 -28 -28 -27 -25 -23 -22 -21 -20 -19 -18 -18 -18
-15 -15 -15 -15 -15 -16 -17 -17 -18 -17 -18 -17 -17 -18 -19 -19 -21 -21 -22 -23 -24 -25 -25 -26 -26 -26 -26 -27 -27 -27 -27 -27 -27 -27 -27 -25 -24 -22 -21 -20 -19 -19 -19 -19
-15 -15 -16 -15 -15 -16 -17 -17 -17 -17 -17 -18 -18 -18 -19 -21 -21 -21 -23 -23 -24 -25 -25 -26 -26 -26 -26 -26 -26 -26 -26 -27 -27 -27 -27 -25 -24 -22 -21 -20 -19 -19 -19 -19
-15 -15 -16 -16 -16 -16 -17 -18 -18 -18 -18 -18 -18 -18 -20 -21 -21 -22 -23 -23 -24 -25 -25 -26 -26 -26 -26 -26 -26 -26 -26 -26 -26 -26 -26 -25 -23 -21 -21 -20 -20 -19 -19 -19
-16 -15 -16 -16 -16 -17 -17 -17 -18 -18 -18 -18 -18 -19 -20 -20 -20 -22 -22 -23 -24 -24 -25 -25 -26 -25 -25 -25 -25 -25 -25 -25 -26 -25 -24 -23 -22 -21 -20 -20 -20 -20 -20 -19
-16 -15 -16 -16 -16 -17 -17 -18 -18 -18 -19 -19 -18 -19 -20 -19 -20 -22 -22 -22 -23 -24 -24 -25 -25 -25 -25 -24 -24 -24 -24 -24 -25 -24 -23 -22 -21 -21 -20 -20 -19 -19 -19 -19
-16 -16 -16 -16 -16 -17 -17 -17 -18 -19 -20 -20 -18 -20 -19 -19 -19 -20 -21 -21 -23 -23 -24 -24 -25 -25 -25 -24 -24 -24 -24 -23 -23 -23 -21 -21 -20 -20 -19 -19 -19 -19 -19 -19
-16 -16 -15 -16 -16 -17 -17 -17 -18 -19 -19 -20 -20 -19 -19 -19 -19 -19 -20 -21 -22 -22 -22 -23 -23 -23 -23 -24 -23 -23 -24 -23 -23 -22 -21 -21 -20 -20 -20 -19 -19 -19 -19 -19
-16 -16 -15 -16 -16 -17 -17 -18 -19 -19 -19 -20 -20 -19 -19 -19 -19 -19 -20 -21 -21 -21 -22 -22 -22 -22 -22 -22 -22 -22 -22 -22 -22 -22 -21 -21 -21 -20 -20 -20 -20 -19 -19 -19
-16 -16 -16 -16 -16 -17 -17 -18 -18 -19 -19 -19 -20 -20 -19 -19 -19 -19 -19 -20 -20 -20 -20 -20 -21 -20 -21 -21 -21 -21 -21 -21 -21 -21 -21 -21 -21 -20 -20 -20 -20 -20 -20 -19
-16 -16 -16 -16 -16 -17 -17 -18 -18 -19 -19 -19 -20 -19 -19 -19 -19 -19 -19 -19 -20 -20 -20 -20 -20 -20 -20 -20 -21 -21 -21 -21 -21 -21 -21 -21 -21 -21 -21 -21 -21 -20 -20 -20
-16 -16 -16 -16 -16 -17 -17 -18 -18 -19 -19 -19 -19 -19 -19 -18 -19 -19 -19 -19 -19 -20 -20 -20 -20 -20 -20 -20 -20 -20 -21 -21 -21 -21 -21 -21 -20 -20 -20 -20 -19 -19 -19 -19
-16 -16 -16 -16 -16 -17 -17 -18 -18 -19 -19 -19 -19 -19 -19 -18 -18 -19 -19 -19 -19 -19 -19 -20 -20 -20 -20 -20 -20 -20 -21 -20 -20 -21 -21 -21 -20 -20 -20 -19 -19 -19 -19 -19
-16 -16 -16 -16 -16 -16 -17 -17 -18 -18 -19 -19 -19 -19 -19 -19 -19 -19 -19 -19 -20 -20 -20 -20 -20 -20 -20 -20 -20 -20 -20 -20 -19 -20 -20 -20 -20 -20 -20 -19 -19 -19 -19 -19
-17 -16 -16 -16 -16 -16 -16 -17 -18 -18 -18 -19 -18 -18 -19 -19 -19 -19 -19 -19 -19 -19 -19 -20 -20 -20 -20 -20 -20 -20 -20 -19 -19 -19 -19 -19 -20 -20 -19 -19 -19 -19 -20 -19
-17 -16 -16 -16 -16 -16 -16 -17 -17 -18 -18 -18 -18 -18 -18 -18 -19 -19 -19 -19 -19 -19 -19 -20 -20 -20 -20 -20 -20 -20 -20 -20 -20 -20 -20 -20 -20 -20 -20 -20 -20 -20 -20 -20
-17 -16 -16 -16 -16 -16 -16 -16 -17 -17 -18 -18 -18 -18 -18 -18 -18 -18 -19 -19 -19 -19 -19 -20 -20 -20 -20 -20 -20 -20 -20 -20 -19 -19 -19 -19 -19 -20 -20 -20 -20 -20 -20 -20
-17 -17 -17 -16 -16 -16 -16 -17 -17 -17 -17 -18 -18 -18 -18 -18 -18 -19 -19 -19 -19 -19 -19 -20 -20 -20 -20 -20 -20 -19 -19 -19 -19 -19 -19 -19 -19 -19 -19 -19 -19 -19 -19 -20
-17 -17 -17 -17 -17 -17 -17 -17 -17 -17 -17 -17 -17 -18 -18 -18 -18 -19 -19 -19 -19 -19 -19 -19 -19 -20 -20 -20 -20 -19 -19 -19 -19 -19 -19 -18 -18 -18 -18 -18 -19 -19 -19 -19
-17 -17 -17 -17 -17 -17 -17 -17 -17 -17 -17 -17 -17 -18 -18 -18 -18 -18 -18 -19 -19 -19 -19 -19 -19 -19 -19 -19 -19 -19 -19 -19 -19 -18 -18 -18 -18 -19 -19 -18 -18 -19 -19 -19
-17 -17 -17 -17 -17 -17 -17 -17 -17 -17 -17 -17 -17 -17 -17 -18 -18 -18 -18 -18 -18 -19 -19 -19 -19 -19 -19 -19 -19 -19 -19 -19 -19 -19 -19 -18 -18 -18 -18 -18 -19 -19 -19 -19
-17 -17 -17 -18 -17 -17 -17 -17 -17 -17 -17 -17 -17 -17 -17 -17 -18 -18 -18 -18 -18 -18 -18 -19 -19 -19 -19 -19 -19 -19 -19 -19 -19 -19 -19 -19 -19 -19 -19 -19 -19 -19 -20 -20

GFSCGP_500_temp_285.txt.gz
Temp
-14 -14 -15 -15 -15 -15 -15 -15 -14 -14 -14 -14 -15 -14 -15 -16 -17 -17 -18 -18 -18 -18 -18 -18 -18 -18 -20 -21 -22 -22 -22 -23 -23 -24 -24 -24 -25 -25 -24 -23 -21 -20 -19 -17
-15 -15 -14 -15 -15 -15 -15 -15 -15 -14 -15 -15 -15 -15 -16 -17 -17 -17 -18 -18 -18 -18 -18 -19 -20 -20 -21 -22 -22 -23 -23 -23 -24 -24 -25 -25 -25 -25 -25 -24 -24 -23 -21 -19
-15 -15 -15 -15 -15 -16 -15 -15 -15 -14 -15 -15 -15 -15 -16 -17 -17 -18 -18 -18 -19 -19 -19 -20 -21 -21 -22 -23 -23 -23 -24 -25 -25 -25 -26 -26 -27 -26 -26 -25 -25 -24 -23 -21
-15 -15 -15 -15 -16 -16 -16 -16 -15 -15 -15 -15 -16 -15 -17 -17 -17 -18 -18 -18 -19 -20 -20 -21 -22 -22 -23 -23 -23 -24 -25 -25 -26 -26 -27 -27 -27 -27 -26 -26 -26 -25 -24 -22
-15 -15 -15 -15 -15 -16 -16 -16 -15 -15 -15 -15 -16 -16 -17 -17 -18 -18 -18 -18 -19 -19 -20 -22 -22 -23 -23 -23 -24 -24 -24 -25 -26 -26 -27 -28 -28 -27 -26 -26 -26 -26 -25 -23
-15 -15 -15 -15 -16 -16 -16 -16 -15 -15 -15 -15 -16 -18 -17 -18 -18 -18 -19 -19 -20 -20 -21 -22 -23 -23 -23 -24 -24 -24 -25 -25 -26 -27 -27 -27 -28 -27 -27 -27 -27 -26 -25 -23
-16 -16 -15 -15 -16 -16 -16 -16 -15 -15 -15 -16 -17 -18 -18 -18 -18 -19 -19 -20 -20 -21 -22 -23 -23 -23 -23 -24 -24 -25 -25 -25 -26 -27 -27 -27 -28 -28 -28 -27 -27 -26 -26 -24
-16 -16 -15 -16 -16 -16 -16 -16 -16 -16 -16 -16 -18 -18 -18 -18 -18 -19 -19 -20 -20 -20 -21 -22 -23 -24 -24 -24 -24 -25 -25 -25 -26 -27 -27 -27 -28 -28 -28 -28 -27 -26 -26 -25
-16 -16 -16 -16 -16 -17 -16 -16 -16 -16 -16 -16 -17 -18 -18 -18 -18 -19 -19 -20 -20 -20 -20 -21 -22 -23 -24 -24 -24 -24 -25 -26 -26 -27 -27 -27 -28 -28 -28 -28 -27 -26 -26 -25
-16 -16 -16 -16 -17 -17 -16 -16 -16 -17 -17 -17 -17 -18 -18 -18 -19 -19 -19 -19 -20 -20 -20 -21 -22 -22 -23 -23 -24 -24 -24 -25 -26 -27 -27 -27 -28 -28 -28 -28 -27 -26 -25 -24
-16 -16 -16 -16 -17 -17 -17 -17 -17 -17 -18 -19 -18 -18 -18 -18 -18 -19 -19 -19 -19 -20 -20 -21 -21 -22 -22 -23 -23 -23 -23 -24 -25 -26 -27 -27 -28 -28 -27 -27 -26 -25 -24 -23
-17 -16 -16 -16 -17 -17 -16 -17 -17 -17 -18 -19 -18 -18 -18 -18 -18 -19 -19 -19 -19 -20 -20 -21 -21 -22 -22 -22 -23 -23 -23 -23 -24 -25 -26 -26 -26 -27 -26 -25 -24 -24 -23 -22
-16 -16 -16 -17 -17 -16 -16 -17 -17 -17 -18 -19 -18 -18 -18 -18 -18 -19 -19 -19 -19 -19 -19 -20 -21 -21 -22 -22 -23 -23 -22 -23 -23 -24 -24 -25 -25 -25 -24 -24 -23 -23 -21 -20
-17 -17 -16 -17 -16 -16 -16 -17 -17 -17 -18 -18 -18 -18 -18 -18 -18 -18 -18 -19 -19 -19 -19 -20 -21 -21 -22 -22 -22 -23 -23 -22 -23 -23 -23 -23 -23 -23 -23 -23 -22 -22 -21 -20
-17 -17 -17 -17 -16 -16 -16 -17 -17 -18 -18 -18 -18 -18 -18 -18 -18 -18 -19 -19 -19 -19 -19 -19 -20 -21 -21 -22 -22 -22 -23 -23 -23 -22 -22 -22 -22 -22 -22 -22 -21 -21 -21 -21
-17 -17 -17 -17 -16 -16 -16 -17 -17 -18 -18 -18 -18 -18 -18 -18 -19 -19 -19 -19 -19 -19 -20 -19 -19 -19 -20 -21 -22 -22 -22 -22 -22 -22 -22 -22 -22 -22 -22 -22 -21 -21 -21 -21
-17 -17 -17 -17 -17 -17 -17 -17 -18 -18 -18 -18 -18 -18 -18 -19 -19 -19 -19 -19 -19 -19 -19 -19 -20 -19 -20 -20 -21 -21 -21 -22 -22 -22 -22 -22 -22 -21 -21 -21 -21 -21 -21 -21
-17 -17 -17 -17 -17 -17 -17 -17 -18 -18 -18 -18 -18 -18 -19 -19 -19 -19 -19 -19 -19 -19 -19 -19 -19 -19 -20 -20 -20 -20 -21 -21 -21 -21 -21 -21 -20 -20 -20 -21 -21 -21 -21 -20
-18 -17 -17 -17 -17 -17 -17 -17 -18 -18 -18 -18 -18 -18 -18 -18 -19 -19 -19 -19 -19 -19 -19 -19 -19 -19 -19 -20 -20 -21 -20 -20 -20 -21 -21 -20 -20 -20 -20 -20 -20 -20 -20 -20
-18 -18 -17 -17 -17 -17 -17 -17 -18 -18 -18 -18 -18 -18 -18 -18 -18 -19 -19 -19 -19 -19 -19 -19 -19 -19 -19 -19 -19 -20 -20 -20 -20 -20 -20 -19 -19 -19 -19 -20 -19 -19 -20 -20
-18 -18 -17 -17 -17 -17 -17 -17 -17 -18 -18 -18 -18 -18 -18 -18 -18 -18 -19 -19 -19 -19 -19 -19 -19 -19 -19 -19 -19 -19 -19 -19 -19 -20 -20 -20 -20 -20 -20 -19 -19 -19 -19 -19
-19 -18 -18 -18 -18 -17 -17 -17 -17 -18 -18 -18 -18 -18 -18 -18 -18 -18 -18 -19 -19 -19 -19 -19 -19 -19 -19 -19 -19 -19 -19 -19 -19 -19 -19 -19 -19 -19 -19 -19 -19 -19 -19 -19
-19 -19 -19 -18 -18 -17 -17 -17 -17 -17 -17 -18 -18 -18 -18 -18 -18 -18 -18 -19 -19 -19 -19 -19 -19 -19 -19 -19 -19 -19 -19 -19 -19 -19 -19 -19 -19 -19 -19 -19 -19 -19 -19 -19
-20 -19 -19 -19 -18 -18 -17 -17 -17 -17 -17 -17 -17 -18 -18 -18 -18 -18 -18 -18 -18 -19 -19 -19 -19 -19 -19 -19 -19 -19 -19 -18 -18 -18 -19 -19 -19 -19 -19 -19 -19 -19 -19 -19
-20 -19 -19 -19 -19 -18 -17 -17 -17 -17 -17 -17 -17 -17 -18 -18 -18 -18 -18 -18 -18 -18 -19 -18 -18 -19 -19 -19 -19 -19 -19 -19 -19 -19 -19 -19 -19 -19 -19 -19 -20 -20 -20 -20
-20 -20 -19 -19 -19 -18 -18 -17 -17 -17 -17 -17 -17 -17 -17 -18 -18 -18 -18 -18 -18 -18 -18 -18 -18 -18 -19 -19 -19 -19 -19 -19 -19 -19 -19 -19 -19 -19 -19 -20 -20 -20 -20 -20

GFSCGP_500_temp_291.txt.gz
Temp
-14 -14 -14 -14 -14 -15 -15 -15 -15 -15 -15 -14 -15 -14 -15 -15 -15 -14 -14 -14 -15 -15 -15 -16 -16 -16 -17 -18 -18 -19 -19 -19 -19 -19 -19 -19 -20 -20 -20 -19 -18 -17 -16 -16
-14 -14 -14 -14 -14 -15 -15 -15 -15 -15 -15 -14 -15 -14 -15 -15 -14 -14 -15 -15 -15 -16 -16 -16 -17 -17 -18 -19 -19 -19 -20 -20 -20 -20 -21 -21 -21 -21 -21 -21 -21 -20 -19 -18
-15 -15 -15 -15 -14 -15 -15 -15 -15 -15 -15 -15 -15 -14 -15 -15 -15 -15 -15 -15 -16 -16 -16 -17 -18 -18 -19 -19 -20 -20 -20 -20 -21 -21 -21 -21 -21 -22 -22 -22 -22 -22 -21 -21
-15 -16 -16 -15 -15 -15 -15 -15 -15 -15 -15 -15 -16 -14 -15 -15 -15 -15 -15 -16 -16 -16 -17 -17 -18 -19 -20 -20 -20 -20 -21 -21 -21 -21 -22 -22 -22 -23 -22 -22 -22 -22 -22 -22
-16 -16 -16 -16 -16 -16 -15 -15 -16 -16 -15 -15 -16 -15 -15 -15 -15 -16 -16 -16 -17 -17 -17 -18 -19 -19 -20 -20 -20 -21 -21 -21 -21 -22 -22 -23 -23 -23 -23 -23 -23 -23 -23 -23
-18 -18 -18 -18 -18 -17 -17 -16 -16 -16 -16 -15 -16 -16 -15 -15 -16 -16 -17 -17 -17 -17 -18 -18 -18 -19 -20 -20 -21 -21 -21 -21 -21 -22 -23 -24 -24 -24 -24 -24 -24 -24 -25 -25
-18 -18 -18 -18 -18 -17 -17 -17 -16 -16 -16 -16 -16 -16 -16 -16 -17 -17 -17 -17 -17 -17 -17 -17 -18 -19 -20 -21 -21 -20 -20 -21 -21 -22 -24 -25 -25 -26 -26 -26 -26 -26 -26 -26
-18 -18 -18 -18 -18 -17 -17 -17 -17 -16 -16 -16 -17 -16 -16 -17 -17 -17 -17 -17 -17 -17 -17 -18 -18 -19 -20 -20 -21 -20 -21 -21 -21 -22 -24 -26 -26 -27 -27 -27 -27 -27 -27 -27
-18 -18 -18 -18 -17 -17 -17 -17 -17 -17 -16 -16 -17 -17 -17 -17 -17 -17 -18 -17 -17 -17 -18 -18 -18 -19 -20 -20 -20 -20 -21 -21 -22 -22 -24 -26 -27 -27 -27 -27 -28 -27 -27 -28
-18 -18 -18 -18 -17 -18 -18 -17 -17 -17 -16 -16 -17 -17 -17 -17 -17 -18 -18 -17 -17 -17 -17 -18 -18 -19 -20 -21 -21 -20 -21 -21 -22 -22 -24 -26 -27 -27 -28 -28 -28 -28 -27 -28
-19 -18 -18 -18 -18 -18 -18 -18 -18 -17 -17 -17 -17 -18 -18 -18 -18 -18 -18 -17 -17 -17 -17 -18 -18 -19 -21 -21 -21 -20 -21 -21 -22 -22 -24 -25 -27 -27 -28 -28 -28 -28 -27 -27
-19 -18 -18 -18 -18 -19 -18 -18 -17 -17 -18 -18 -18 -17 -18 -18 -18 -18 -18 -18 -18 -18 -17 -18 -19 -19 -20 -20 -21 -21 -21 -21 -22 -22 -23 -24 -25 -27 -28 -28 -28 -28 -27 -27
-19 -18 -18 -18 -18 -18 -18 -18 -17 -18 -18 -18 -18 -18 -18 -18 -18 -18 -18 -18 -18 -18 -17 -18 -18 -19 -19 -20 -20 -21 -21 -22 -22 -22 -23 -24 -25 -25 -27 -27 -27 -27 -27 -27
-19 -18 -18 -18 -18 -19 -19 -18 -18 -17 -18 -18 -18 -18 -18 -18 -18 -18 -18 -18 -18 -18 -18 -18 -18 -18 -19 -20 -20 -20 -21 -22 -22 -22 -23 -23 -24 -24 -25 -26 -26 -26 -26 -26
-19 -18 -18 -18 -18 -18 -18 -18 -18 -18 -18 -18 -18 -18 -18 -18 -18 -18 -18 -18 -18 -18 -18 -18 -18 -18 -19 -19 -20 -20 -20 -21 -22 -22 -22 -22 -23 -23 -24 -25 -25 -26 -26 -26
-19 -19 -18 -18 -18 -18 -18 -18 -18 -18 -18 -18 -18 -18 -19 -19 -19 -19 -19 -19 -19 -19 -18 -18 -18 -19 -19 -19 -19 -20 -20 -20 -21 -22 -22 -22 -23 -23 -23 -23 -24 -25 -26 -25
-18 -18 -18 -18 -18 -19 -18 -18 -18 -18 -18 -18 -18 -19 -19 -19 -19 -19 -19 -19 -19 -19 -19 -18 -18 -18 -19 -19 -19 -19 -20 -20 -21 -21 -21 -22 -22 -22 -23 -23 -23 -23 -23 -23
-19 -18 -18 -18 -18 -19 -18 -18 -18 -18 -18 -18 -19 -19 -19 -19 -19 -19 -19 -19 -19 -19 -19 -19 -18 -18 -18 -18 -19 -19 -20 -20 -20 -20 -21 -21 -21 -22 -22 -22 -22 -22 -22 -22
-19 -19 -18 -19 -19 -19 -19 -19 -18 -18 -18 -18 -18 -19 -19 -19 -19 -19 -19 -19 -19 -19 -19 -19 -19 -19 -18 -18 -18 -19 -19 -19 -19 -20 -20 -20 -20 -21 -21 -22 -22 -22 -22 -22
-20 -19 -19 -19 -19 -20 -19 -19 -19 -18 -18 -18 -18 -18 -18 -19 -19 -19 -19 -19 -19 -19 -19 -19 -19 -19 -19 -19 -19 -19 -19 -19 -19 -19 -19 -19 -20 -20 -20 -20 -21 -21 -21 -21
-20 -20 -20 -19 -19 -20 -19 -19 -19 -19 -19 -18 -18 -18 -18 -18 -19 -19 -19 -19 -19 -19 -19 -19 -19 -19 -19 -19 -19 -19 -19 -19 -19 -19 -19 -19 -19 -19 -19 -20 -20 -20 -20 -20
-21 -21 -20 -20 -20 -19 -19 -19 -19 -18 -18 -18 -18 -18 -18 -18 -18 -18 -19 -19 -19 -19 -19 -19 -19 -19 -19 -19 -19 -19 -19 -19 -19 -19 -19 -19 -19 -20 -20 -20 -20 -20 -20 -20
-21 -20 -20 -20 -20 -20 -20 -19 -19 -19 -19 -18 -18 -18 -18 -18 -18 -18 -18 -18 -18 -19 -19 -19 -19 -19 -19 -19 -19 -19 -19 -19 -19 -19 -19 -19 -20 -20 -20 -20 -20 -20 -20 -20
-21 -21 -21 -21 -20 -20 -20 -20 -20 -19 -19 -18 -18 -18 -18 -18 -18 -18 -18 -18 -18 -18 -18 -19 -19 -19 -19 -19 -19 -19 -19 -19 -19 -19 -19 -19 -20 -20 -20 -20 -20 -20 -20 -20
-22 -21 -21 -21 -21 -21 -21 -20 -20 -19 -19 -19 -19 -19 -18 -18 -18 -18 -18 -18 -18 -18 -18 -18 -18 -18 -18 -19 -19 -19 -19 -19 -19 -19 -19 -19 -19 -19 -19 -19 -20 -20 -20 -20
-22 -22 -22 -21 -21 -21 -21 -20 -20 -19 -19 -19 -19 -19 -18 -18 -18 -17 -18 -18 -18 -18 -18 -18 -18 -18 -18 -19 -19 -19 -19 -19 -19 -19 -19 -19 -19 -19 -19 -19 -19 -19 -20 -20